Time,TemperatureF,DewpointF,PressureIn,WindDirection,WindDirectionDegrees,WindSpeedMPH,WindSpeedGustMPH,Humidity,HourlyPrecipIn,Conditions,Clouds,dailyrainin,SolarRadiationWatts/m^2,SoftwareType,DateUTC
2013-01-29 00:01:00,38.0,34.0,-100.00,SSW,204,3.0,6.0,87,0.00,,,0.00,0.000000,,2013-01-29 08:01:00,
2013-01-29 00:32:00,36.0,33.0,-100.00,SW,218,3.0,8.0,88,0.00,,,0.00,0.000000,,2013-01-29 08:32:00,
2013-01-29 00:42:00,36.0,33.0,-100.00,SW,218,3.0,8.0,88,0.00,,,0.00,0.000000,,2013-01-29 08:42:00,
2013-01-29 00:52:00,36.0,33.0,-100.00,SW,218,3.0,8.0,88,0.00,,,0.00,0.000000,,2013-01-29 08:52:00,
2013-01-29 01:01:00,36.0,33.0,-100.00,SW,218,3.0,8.0,88,0.00,,,0.00,0.000000,,2013-01-29 09:01:00,
2013-01-29 01:32:00,36.0,33.0,-100.00,SSW,213,3.0,7.0,87,0.00,,,0.00,0.000000,,2013-01-29 09:32:00,
2013-01-29 01:42:00,36.0,33.0,-100.00,SSW,213,3.0,7.0,87,0.00,,,0.00,0.000000,,2013-01-29 09:42:00,
2013-01-29 01:52:00,36.0,33.0,-100.00,SSW,213,3.0,7.0,87,0.00,,,0.00,0.000000,,2013-01-29 09:52:00,
2013-01-29 02:01:00,36.0,33.0,-100.00,SSW,213,3.0,7.0,87,0.00,,,0.00,0.000000,,2013-01-29 10:01:00,
2013-01-29 02:21:00,36.0,33.0,-100.00,SSW,201,3.0,9.0,87,0.00,,,0.00,0.000000,,2013-01-29 10:21:00,
2013-01-29 02:32:00,36.0,33.0,-100.00,SSW,201,3.0,9.0,87,0.00,,,0.00,0.000000,,2013-01-29 10:32:00,
2013-01-29 02:42:00,36.0,33.0,-100.00,SSW,201,3.0,9.0,87,0.00,,,0.00,0.000000,,2013-01-29 10:42:00,
2013-01-29 02:52:00,36.0,33.0,-100.00,SSW,201,3.0,9.0,87,0.00,,,0.00,0.000000,,2013-01-29 10:52:00,
2013-01-29 03:01:00,36.0,33.0,-100.00,SSW,201,3.0,9.0,87,0.00,,,0.00,0.000000,,2013-01-29 11:01:00,
2013-01-29 03:32:00,35.0,32.0,-100.00,SSW,212,3.0,6.0,89,0.00,,,0.00,0.000000,,2013-01-29 11:32:00,
2013-01-29 03:42:00,35.0,32.0,-100.00,SSW,212,3.0,6.0,89,0.00,,,0.00,0.000000,,2013-01-29 11:42:00,
2013-01-29 03:52:00,35.0,32.0,-100.00,SSW,212,3.0,6.0,89,0.00,,,0.00,0.000000,,2013-01-29 11:52:00,
2013-01-29 04:33:00,35.0,32.0,-100.00,SW,215,4.0,7.0,90,0.00,,,0.00,0.000000,,2013-01-29 12:33:00,
2013-01-29 04:43:00,35.0,32.0,-100.00,SW,215,4.0,7.0,90,0.00,,,0.00,0.000000,,2013-01-29 12:43:00,
2013-01-29 04:52:00,35.0,32.0,-100.00,SW,215,4.0,7.0,90,0.00,,,0.00,0.000000,,2013-01-29 12:52:00,
2013-01-29 05:32:00,35.0,32.0,-100.00,SW,223,3.0,8.0,89,0.00,,,0.00,0.000000,,2013-01-29 13:32:00,
2013-01-29 05:43:00,35.0,32.0,-100.00,SW,223,3.0,8.0,89,0.00,,,0.00,0.000000,,2013-01-29 13:43:00,
2013-01-29 05:52:00,35.0,32.0,-100.00,SW,223,3.0,8.0,89,0.00,,,0.00,0.000000,,2013-01-29 13:52:00,
2013-01-29 06:33:00,35.0,32.0,-100.00,SW,216,3.0,7.0,89,0.00,,,0.00,0.000000,,2013-01-29 14:33:00,
2013-01-29 06:43:00,35.0,32.0,-100.00,SW,216,3.0,7.0,89,0.00,,,0.00,0.000000,,2013-01-29 14:43:00,
2013-01-29 06:52:00,35.0,32.0,-100.00,SW,216,3.0,7.0,89,0.00,,,0.00,0.000000,,2013-01-29 14:52:00,
2013-01-29 07:02:00,35.0,32.0,-100.00,SW,216,3.0,7.0,89,0.00,,,0.00,0.000000,,2013-01-29 15:02:00,
2013-01-29 07:33:00,34.0,31.0,-100.00,SW,215,3.0,6.0,90,0.00,,,0.00,0.000000,,2013-01-29 15:33:00,
2013-01-29 07:43:00,34.0,31.0,-100.00,SW,215,3.0,6.0,90,0.00,,,0.00,0.000000,,2013-01-29 15:43:00,
2013-01-29 07:53:00,34.0,31.0,-100.00,SW,215,3.0,6.0,90,0.00,,,0.00,0.000000,,2013-01-29 15:53:00,
2013-01-29 08:33:00,36.0,33.0,-100.00,SSW,203,3.0,6.0,89,-99.99,,,0.00,31.000000,,2013-01-29 16:33:00,
2013-01-29 08:43:00,36.0,33.0,-100.00,SSW,203,3.0,6.0,89,-99.99,,,0.00,31.000000,,2013-01-29 16:43:00,
2013-01-29 09:22:00,41.0,35.0,-100.00,SSW,204,3.0,7.0,80,0.00,,,0.00,151.000000,,2013-01-29 17:22:00,
2013-01-29 09:33:00,41.0,35.0,-100.00,SSW,204,3.0,7.0,80,0.00,,,0.00,151.000000,,2013-01-29 17:33:00,
2013-01-29 09:42:00,41.0,35.0,-100.00,SSW,204,3.0,7.0,80,0.00,,,0.00,151.000000,,2013-01-29 17:42:00,
2013-01-29 09:52:00,41.0,35.0,-100.00,SSW,204,3.0,7.0,80,0.00,,,0.00,151.000000,,2013-01-29 17:52:00,
2013-01-29 10:02:00,41.0,35.0,-100.00,SSW,204,3.0,7.0,80,0.00,,,0.00,151.000000,,2013-01-29 18:02:00,
2013-01-29 10:22:00,47.0,38.0,-100.00,SSW,211,2.0,7.0,70,0.00,,,0.00,260.000000,,2013-01-29 18:22:00,
2013-01-29 10:33:00,47.0,38.0,-100.00,SSW,211,2.0,7.0,70,0.00,,,0.00,260.000000,,2013-01-29 18:33:00,
2013-01-29 10:42:00,47.0,38.0,-100.00,SSW,211,2.0,7.0,70,0.00,,,0.00,260.000000,,2013-01-29 18:42:00,
2013-01-29 10:52:00,47.0,38.0,-100.00,SSW,211,2.0,7.0,70,0.00,,,0.00,260.000000,,2013-01-29 18:52:00,
2013-01-29 11:01:00,47.0,38.0,-100.00,SSW,211,2.0,7.0,70,0.00,,,0.00,260.000000,,2013-01-29 19:01:00,
2013-01-29 11:33:00,52.0,39.0,-100.00,East,88,3.0,9.0,62,0.00,,,0.00,356.000000,,2013-01-29 19:33:00,
2013-01-29 11:42:00,52.0,39.0,-100.00,East,88,3.0,9.0,62,0.00,,,0.00,356.000000,,2013-01-29 19:42:00,
2013-01-29 11:52:00,52.0,39.0,-100.00,East,88,3.0,9.0,62,0.00,,,0.00,356.000000,,2013-01-29 19:52:00,
2013-01-29 12:01:00,52.0,39.0,-100.00,East,88,3.0,9.0,62,0.00,,,0.00,356.000000,,2013-01-29 20:01:00,
2013-01-29 12:33:00,56.0,41.0,-100.00,East,95,4.0,10.0,56,0.00,,,0.00,466.000000,,2013-01-29 20:33:00,
2013-01-29 12:42:00,56.0,41.0,-100.00,East,95,4.0,10.0,56,0.00,,,0.00,466.000000,,2013-01-29 20:42:00,
2013-01-29 12:53:00,56.0,41.0,-100.00,East,95,4.0,10.0,56,0.00,,,0.00,466.000000,,2013-01-29 20:53:00,
2013-01-29 13:01:00,56.0,41.0,-100.00,East,95,4.0,10.0,56,0.00,,,0.00,466.000000,,2013-01-29 21:01:00,
2013-01-29 13:34:00,59.0,38.0,-100.00,ENE,72,9.0,18.0,46,0.00,,,0.00,513.000000,,2013-01-29 21:34:00,
2013-01-29 13:42:00,59.0,38.0,-100.00,ENE,72,9.0,18.0,46,0.00,,,0.00,513.000000,,2013-01-29 21:42:00,
2013-01-29 13:52:00,59.0,38.0,-100.00,ENE,72,9.0,18.0,46,0.00,,,0.00,513.000000,,2013-01-29 21:52:00,
2013-01-29 14:01:00,59.0,38.0,-100.00,ENE,72,9.0,18.0,46,0.00,,,0.00,513.000000,,2013-01-29 22:01:00,
2013-01-29 14:33:00,61.0,38.0,-100.00,East,85,10.0,16.0,42,0.00,,,0.00,449.000000,,2013-01-29 22:33:00,
2013-01-29 14:42:00,61.0,38.0,-100.00,East,85,10.0,16.0,42,0.00,,,0.00,449.000000,,2013-01-29 22:42:00,
2013-01-29 14:53:00,61.0,38.0,-100.00,East,85,10.0,16.0,42,0.00,,,0.00,449.000000,,2013-01-29 22:53:00,
2013-01-29 15:01:00,61.0,38.0,-100.00,East,85,10.0,16.0,42,0.00,,,0.00,449.000000,,2013-01-29 23:01:00,
2013-01-29 15:33:00,60.0,39.0,-100.00,East,83,10.0,20.0,45,0.00,,,0.00,344.000000,,2013-01-29 23:33:00,
2013-01-29 15:42:00,60.0,39.0,-100.00,East,83,10.0,20.0,45,0.00,,,0.00,344.000000,,2013-01-29 23:42:00,
2013-01-29 15:53:00,60.0,39.0,-100.00,East,83,10.0,20.0,45,0.00,,,0.00,344.000000,,2013-01-29 23:53:00,
2013-01-29 16:02:00,60.0,39.0,-100.00,East,83,10.0,20.0,45,0.00,,,0.00,344.000000,,2013-01-30 00:02:00,
2013-01-29 16:32:00,59.0,37.0,-100.00,East,79,5.0,20.0,44,0.00,,,0.00,256.000000,,2013-01-30 00:32:00,
2013-01-29 16:43:00,59.0,37.0,-100.00,East,79,5.0,20.0,44,0.00,,,0.00,256.000000,,2013-01-30 00:43:00,
2013-01-29 16:52:00,59.0,37.0,-100.00,East,79,5.0,20.0,44,0.00,,,0.00,256.000000,,2013-01-30 00:52:00,
2013-01-29 17:01:00,59.0,37.0,-100.00,East,79,5.0,20.0,44,0.00,,,0.00,256.000000,,2013-01-30 01:01:00,
2013-01-29 17:22:00,54.0,39.0,-100.00,SE,131,6.0,15.0,56,0.00,,,0.00,75.000000,,2013-01-30 01:22:00,
2013-01-29 17:32:00,54.0,39.0,-100.00,SE,131,6.0,15.0,56,0.00,,,0.00,75.000000,,2013-01-30 01:32:00,
2013-01-29 17:42:00,54.0,39.0,-100.00,SE,131,6.0,15.0,56,0.00,,,0.00,75.000000,,2013-01-30 01:42:00,
2013-01-29 17:52:00,54.0,39.0,-100.00,SE,131,6.0,15.0,56,0.00,,,0.00,75.000000,,2013-01-30 01:52:00,
2013-01-29 18:01:00,54.0,39.0,-100.00,SE,131,6.0,15.0,56,0.00,,,0.00,75.000000,,2013-01-30 02:01:00,
2013-01-29 18:22:00,51.0,39.0,-100.00,East,90,3.0,13.0,63,0.00,,,0.00,8.000000,,2013-01-30 02:22:00,
2013-01-29 18:33:00,51.0,39.0,-100.00,East,90,3.0,13.0,63,0.00,,,0.00,8.000000,,2013-01-30 02:33:00,
2013-01-29 18:42:00,51.0,39.0,-100.00,East,90,3.0,13.0,63,0.00,,,0.00,8.000000,,2013-01-30 02:42:00,
2013-01-29 18:53:00,51.0,39.0,-100.00,East,90,3.0,13.0,63,0.00,,,0.00,8.000000,,2013-01-30 02:53:00,
2013-01-29 19:02:00,51.0,39.0,-100.00,East,90,3.0,13.0,63,0.00,,,0.00,8.000000,,2013-01-30 03:02:00,
2013-01-29 19:22:00,49.0,39.0,-100.00,East,100,4.0,9.0,68,0.00,,,0.00,0.000000,,2013-01-30 03:22:00,
2013-01-29 19:32:00,49.0,39.0,-100.00,East,100,4.0,9.0,68,0.00,,,0.00,0.000000,,2013-01-30 03:32:00,
2013-01-29 19:42:00,49.0,39.0,-100.00,East,100,4.0,9.0,68,0.00,,,0.00,0.000000,,2013-01-30 03:42:00,
2013-01-29 19:52:00,49.0,39.0,-100.00,East,100,4.0,9.0,68,0.00,,,0.00,0.000000,,2013-01-30 03:52:00,
2013-01-29 20:01:00,49.0,39.0,-100.00,East,100,4.0,9.0,68,0.00,,,0.00,0.000000,,2013-01-30 04:01:00,
2013-01-29 20:32:00,46.0,38.0,-100.00,ENE,76,1.0,7.0,73,0.00,,,0.00,0.000000,,2013-01-30 04:32:00,
2013-01-29 20:42:00,46.0,38.0,-100.00,ENE,76,1.0,7.0,73,0.00,,,0.00,0.000000,,2013-01-30 04:42:00,
2013-01-29 20:52:00,46.0,38.0,-100.00,ENE,76,1.0,7.0,73,0.00,,,0.00,0.000000,,2013-01-30 04:52:00,
2013-01-29 21:03:00,46.0,38.0,-100.00,ENE,76,1.0,7.0,73,0.00,,,0.00,0.000000,,2013-01-30 05:03:00,
2013-01-29 21:22:00,43.0,37.0,-100.00,South,179,1.0,6.0,80,0.00,,,0.00,0.000000,,2013-01-30 05:22:00,
2013-01-29 21:32:00,43.0,37.0,-100.00,South,179,1.0,6.0,80,0.00,,,0.00,0.000000,,2013-01-30 05:32:00,
2013-01-29 21:43:00,43.0,37.0,-100.00,South,179,1.0,6.0,80,0.00,,,0.00,0.000000,,2013-01-30 05:43:00,
2013-01-29 21:52:00,43.0,37.0,-100.00,South,179,1.0,6.0,80,0.00,,,0.00,0.000000,,2013-01-30 05:52:00,
2013-01-29 22:02:00,43.0,37.0,-100.00,South,179,1.0,6.0,80,0.00,,,0.00,0.000000,,2013-01-30 06:02:00,
2013-01-29 22:22:00,41.0,37.0,-100.00,WNW,290,0.0,2.0,86,0.00,,,0.00,0.000000,,2013-01-30 06:22:00,
2013-01-29 22:32:00,41.0,37.0,-100.00,WNW,290,0.0,2.0,86,0.00,,,0.00,0.000000,,2013-01-30 06:32:00,
2013-01-29 22:42:00,41.0,37.0,-100.00,WNW,290,0.0,2.0,86,0.00,,,0.00,0.000000,,2013-01-30 06:42:00,
2013-01-29 22:52:00,41.0,37.0,-100.00,WNW,290,0.0,2.0,86,0.00,,,0.00,0.000000,,2013-01-30 06:52:00,
2013-01-29 23:01:00,41.0,37.0,-100.00,WNW,290,0.0,2.0,86,0.00,,,0.00,0.000000,,2013-01-30 07:01:00,
2013-01-29 23:32:00,39.0,36.0,-100.00,West,264,1.0,3.0,90,0.00,,,0.00,0.000000,,2013-01-30 07:32:00,